TimeCDT,TemperatureF,Dew PointF,Humidity,Sea Level PressureIn,VisibilityMPH,Wind Direction,Wind SpeedMPH,Gust SpeedMPH,PrecipitationIn,Events,Conditions,WindDirDegrees,DateUTC
12:14 AM,42.8,42.8,100,30.02,5.0,Calm,Calm,-,N/A,,Overcast,0,2013-04-05 05:14:00
12:25 AM,42.8,42.8,100,30.02,4.0,Calm,Calm,-,N/A,,Overcast,0,2013-04-05 05:25:00
12:44 AM,42.8,42.8,100,30.02,5.0,Calm,Calm,-,N/A,,Overcast,0,2013-04-05 05:44:00
12:56 AM,43.0,43.0,100,30.05,4.0,Calm,Calm,-,N/A,,Overcast,0,2013-04-05 05:56:00
1:56 AM,41.9,41.9,100,30.05,2.0,Calm,Calm,-,N/A,,Mostly Cloudy,0,2013-04-05 06:56:00
1:59 AM,42.8,42.8,100,30.02,1.8,Calm,Calm,-,N/A,,Mostly Cloudy,0,2013-04-05 06:59:00
2:17 AM,41.0,41.0,100,30.02,2.5,SSW,4.6,-,N/A,,Partly Cloudy,210,2013-04-05 07:17:00
2:36 AM,41.0,41.0,100,30.02,1.2,Calm,Calm,-,N/A,,Clear,0,2013-04-05 07:36:00
2:56 AM,41.9,41.9,100,30.05,1.0,Calm,Calm,-,N/A,,Clear,0,2013-04-05 07:56:00
3:05 AM,39.2,39.2,100,30.02,0.5,Calm,Calm,-,N/A,Fog,Fog,0,2013-04-05 08:05:00
3:15 AM,39.2,39.2,100,30.02,0.2,Calm,Calm,-,N/A,Fog,Fog,0,2013-04-05 08:15:00
3:34 AM,37.4,37.4,100,30.03,0.2,Calm,Calm,-,N/A,Fog,Fog,0,2013-04-05 08:34:00
3:56 AM,36.9,36.9,100,30.07,0.2,Calm,Calm,-,N/A,Fog,Fog,0,2013-04-05 08:56:00
4:12 AM,37.4,37.4,100,30.04,0.2,Calm,Calm,-,N/A,Fog,Fog,0,2013-04-05 09:12:00
4:39 AM,37.4,37.4,100,30.06,0.2,Calm,Calm,-,N/A,Fog,Fog,0,2013-04-05 09:39:00
4:46 AM,39.2,39.2,100,30.06,0.2,Calm,Calm,-,N/A,Fog,Fog,0,2013-04-05 09:46:00
4:56 AM,39.9,39.9,100,30.09,0.2,Calm,Calm,-,N/A,Fog,Fog,0,2013-04-05 09:56:00
5:07 AM,39.2,39.2,100,30.06,0.2,Calm,Calm,-,N/A,Fog,Fog,0,2013-04-05 10:07:00
5:56 AM,38.8,38.8,100,30.11,0.2,West,4.6,-,N/A,Fog,Fog,270,2013-04-05 10:56:00
6:04 AM,37.4,37.4,100,30.07,0.2,West,4.6,-,N/A,Fog,Fog,260,2013-04-05 11:04:00
6:23 AM,37.4,37.4,100,30.08,0.2,Calm,Calm,-,N/A,Fog,Fog,0,2013-04-05 11:23:00
6:30 AM,39.2,39.2,100,30.08,0.2,Calm,Calm,-,N/A,Fog,Fog,0,2013-04-05 11:30:00
6:56 AM,39.9,39.9,100,30.12,0.2,Calm,Calm,-,N/A,Fog,Fog,0,2013-04-05 11:56:00
7:56 AM,41.0,41.0,100,30.12,0.2,Calm,Calm,-,N/A,Fog,Fog,0,2013-04-05 12:56:00
8:37 AM,42.8,42.8,100,30.10,0.5,Variable,4.6,-,N/A,Fog,Fog,0,2013-04-05 13:37:00
8:42 AM,42.8,42.8,100,30.10,1.0,WNW,3.5,-,N/A,,Overcast,290,2013-04-05 13:42:00
8:44 AM,42.8,42.8,100,30.10,1.5,Variable,3.5,-,N/A,,Overcast,0,2013-04-05 13:44:00
8:56 AM,41.9,41.9,100,30.14,4.0,WSW,5.8,-,N/A,,Overcast,250,2013-04-05 13:56:00
9:12 AM,42.8,42.8,100,30.11,5.0,West,5.8,-,N/A,,Overcast,260,2013-04-05 14:12:00
9:27 AM,42.8,42.8,100,30.12,6.0,Calm,Calm,-,N/A,,Mostly Cloudy,0,2013-04-05 14:27:00
9:56 AM,45.0,45.0,100,30.15,8.0,Calm,Calm,-,N/A,,Partly Cloudy,0,2013-04-05 14:56:00
10:56 AM,50.9,41.0,69,30.14,10.0,Calm,Calm,-,N/A,,Clear,0,2013-04-05 15:56:00
11:56 AM,56.8,34.0,42,30.12,10.0,North,8.1,-,N/A,,Clear,350,2013-04-05 16:56:00
12:56 PM,57.9,34.0,41,30.10,10.0,East,4.6,-,N/A,,Clear,90,2013-04-05 17:56:00
1:56 PM,61.0,34.0,36,30.08,10.0,Variable,4.6,-,N/A,,Clear,0,2013-04-05 18:56:00
2:56 PM,63.0,32.9,32,30.07,10.0,Calm,Calm,-,N/A,,Clear,0,2013-04-05 19:56:00
3:56 PM,63.9,32.9,31,30.06,10.0,West,9.2,-,N/A,,Clear,280,2013-04-05 20:56:00
4:56 PM,64.9,32.9,30,30.06,10.0,NNW,10.4,-,N/A,,Clear,340,2013-04-05 21:56:00
5:56 PM,63.9,32.0,30,30.07,10.0,WNW,4.6,-,N/A,,Clear,300,2013-04-05 22:56:00
6:56 PM,54.9,36.9,51,30.09,10.0,WNW,5.8,-,N/A,,Clear,290,2013-04-05 23:56:00
7:56 PM,45.9,36.9,71,30.11,10.0,Calm,Calm,-,N/A,,Clear,0,2013-04-06 00:56:00
8:56 PM,41.9,36.9,82,30.14,10.0,Calm,Calm,-,N/A,,Clear,0,2013-04-06 01:56:00
9:56 PM,38.8,34.9,86,30.15,10.0,Calm,Calm,-,N/A,,Clear,0,2013-04-06 02:56:00
10:56 PM,36.9,34.9,93,30.16,10.0,Calm,Calm,-,N/A,,Clear,0,2013-04-06 03:56:00
11:56 PM,34.9,34.9,100,30.16,10.0,Calm,Calm,-,N/A,,Clear,0,2013-04-06 04:56:00